YAHSAT 1B               
1 38245U 12016A   19258.83932692  .00000118  00000-0  00000-0 0  9999
2 38245   0.0164 183.4499 0001105 349.7424 171.0710  1.00270890 20874
BREEZE-M DEB [TANK]     
1 38246U 12016B   19258.96673000  .00001052  00000-0  23889-3 0  9990
2 38246  49.5366 165.7266 5105223  53.0932 343.6709  5.43267314145536
BREEZE-M R/B            
1 38247U 12016C   19258.83354741 -.00000142  00000-0  00000-0 0  9992
2 38247  25.0300  10.3161 6152088 219.7806  73.2913  2.19986038 59433